TimeEDT,TemperatureF,Dew PointF,Humidity,Sea Level PressureIn,VisibilityMPH,Wind Direction,Wind SpeedMPH,Gust SpeedMPH,PrecipitationIn,Events,Conditions,WindDirDegrees,DateUTC
12:51 AM,50.0,50.0,100,-9999,0.0,WSW,43.7,52.9,N/A,Fog,Fog,240,2013-05-23 04:51:00
1:49 AM,51.8,51.8,100,-9999,0.0,WSW,52.9,65.6,N/A,Fog,Fog,240,2013-05-23 05:49:00
2:58 AM,53.6,53.6,100,-9999,0.0,WSW,61.0,71.3,N/A,Fog,Fog,250,2013-05-23 06:58:00
3:55 AM,51.8,51.8,100,-9999,0.0,West,48.3,55.2,N/A,Fog,Fog,260,2013-05-23 07:55:00
4:49 AM,50.0,50.0,100,-9999,0.1,West,43.7,-,N/A,Fog,Fog,260,2013-05-23 08:49:00
5:50 AM,50.0,50.0,100,-9999,0.0,West,36.8,-,N/A,Fog,Fog,270,2013-05-23 09:50:00
6:55 AM,50.0,48.2,94,-9999,25.0,West,48.3,52.9,N/A,,Mostly Cloudy,260,2013-05-23 10:55:00
7:47 AM,50.0,46.4,87,-9999,35.0,WSW,41.4,47.2,N/A,,Scattered Clouds,250,2013-05-23 11:47:00
8:54 AM,50.0,50.0,100,-9999,0.0,West,38.0,46.0,N/A,Fog,Fog,260,2013-05-23 12:54:00
9:56 AM,50.0,50.0,100,-9999,0.1,WSW,41.4,-,N/A,Fog,Fog,250,2013-05-23 13:56:00
10:55 AM,55.4,46.4,72,-9999,35.0,WSW,31.1,41.4,N/A,,Mostly Cloudy,240,2013-05-23 14:55:00
11:49 AM,51.8,51.8,100,-9999,0.1,WSW,29.9,41.4,N/A,Fog,Fog,240,2013-05-23 15:49:00
12:48 PM,51.8,51.8,100,-9999,0.1,West,38.0,-,N/A,Fog,Fog,260,2013-05-23 16:48:00
1:52 PM,50.0,50.0,100,-9999,0.1,WSW,35.7,44.9,N/A,Fog,Fog,240,2013-05-23 17:52:00
2:49 PM,48.2,48.2,100,-9999,0.1,WSW,36.8,48.3,N/A,Fog-Rain,Light Rain Showers,240,2013-05-23 18:49:00
3:48 PM,50.0,50.0,100,-9999,0.1,WSW,41.4,58.7,N/A,Fog,Fog,240,2013-05-23 19:48:00
4:48 PM,48.2,48.2,100,-9999,0.1,SW,36.8,50.6,N/A,Fog,Fog,230,2013-05-23 20:48:00
5:51 PM,48.2,48.2,100,-9999,0.0,SW,35.7,47.2,N/A,Fog-Rain,Light Rain Showers,230,2013-05-23 21:51:00
6:56 PM,48.2,48.2,100,-9999,0.0,WSW,36.8,48.3,N/A,Fog,Fog,240,2013-05-23 22:56:00
7:47 PM,48.2,48.2,100,-9999,0.0,SW,29.9,44.9,N/A,Fog,Fog,230,2013-05-23 23:47:00
9:52 PM,48.2,48.2,100,-9999,0.0,WSW,42.6,50.6,N/A,Fog,Fog,240,2013-05-24 01:52:00
10:47 PM,48.2,48.2,100,-9999,0.0,WSW,33.4,44.9,N/A,Fog,Fog,240,2013-05-24 02:47:00
11:48 PM,48.2,48.2,100,-9999,0.0,WSW,27.6,36.8,N/A,Fog,Fog,240,2013-05-24 03:48:00